Regional Weather Roundup
Issued by NWS New Orleans/Baton Rouge, LA

Home | Current Version | Previous Version | Text Only | Print | Product List | Glossary On
Versions: 1 2 3 4 5 6 7 8 9 10 11 12 13 14 15 16 17 18 19 20 21 22 23 24 25 26 27 28 29 30 31 32 33 34 35 36 37 38 39 40 41 42 43 44 45 46 47 48 49 50
280
ASUS44 KLIX 180510
RWRLIX
NEW ORLEANS REGIONAL WEATHER ROUNDUP
NATIONAL WEATHER SERVICE NEW ORLEANS LA
1200 AM CDT THU SEP 18 2014

NOTE: "FAIR" INDICATES FEW OR NO CLOUDS BELOW 12,000 FEET WITH NO
      SIGNIFICANT WEATHER AND/OR OBSTRUCTIONS TO VISIBILITY.
      SKY/WX - SKY CONDITION AND SIGNIFICANT WEATHER.
      TMP - AIR TEMPERATURE.     DP    - DEWPOINT TEMPERATURE.
      RH  - RELATIVE HUMIDITY.   PRES  - PRESSURE.
      HI  - HEAT INDEX.          WCI   - WIND CHILL INDEX.

*  THESE STATIONS ARE NOT NWS OR FAA STATIONS AND ARE NOT UNDER
   NWS QUALITY CONTROL.

LAZ038-040-048-061>063-065>067-069-180600-
SOUTHEAST LOUISIANA

CITY           SKY/WX    TMP DP  RH WIND       PRES   REMARKS
N.O. AUDUBON     N/A     78  73  83 MISG        N/A
N.O. INTL ARPT PTCLDY    77  71  82 CALM      29.92F
N.O. LAKEFRONT PTCLDY    81  73  76 W5        29.92F
N.O. DOWNTOWN*   N/A     81  70  69 CALM      29.92F
SLIDELL        MOCLDY    75  72  90 CALM      29.91F
BATON ROUGE    PTCLDY    76  73  91 W5        29.93S
BOOTHVILLE     CLEAR     80  75  84 CALM      29.93S
BELLE CHASSE   CLEAR     74  70  87 CALM      29.92S
BOGALUSA*        N/A     76  73  88 CALM      29.93F
GALLIANO*      NOT AVBL
NEW ROADS*       N/A     74  74  98 CALM      29.93S FOG
GONZALES*        N/A     74  74 100 CALM      29.92S
HAMMOND*       MOCLDY    75  72  88 CALM      29.94S
HOUMA*           N/A    N/A N/A N/A CALM      29.92F FOG
PORT FOURCHON* MOCLDY    81  75  83 N6        29.95F

$$

MSZ070-080>082-180600-
SOUTHERN MISSISSIPPI

CITY           SKY/WX    TMP DP  RH WIND       PRES   REMARKS
MCCOMB         CLOUDY    74  72  93 CALM      29.93F
GULFPORT       CLEAR     76  72  87 CALM      29.91F
BILOXI         CLEAR     78  73  84 CALM      29.91F
PASCAGOULA     PTCLDY    73  72  96 CALM      29.92F

$$

COASTAL OBSERVATIONS
LAKE AND NEARSHORE STATIONS

STATION/POSITION TIME  TEMP    WIND        PRES    WAVE
                       AIR SEA DIR/SP/G            HT/PER
                 (UTC) (F)     (DEG/KT/KT) (MB)    (FT/S)
PASCAGOULA       0500   79      10/  5/  7 1012.7
WAVELAND YACHT   0500   78     270/  2/  2 1012.4
GRAND ISLE       0500   82 88  290/  3/  5 1013.7
SOUTHWEST PASS   0500   82 91  260/  6/  7 1013.7
NEW CANAL        0500   81 83  250/  2/  3 1013.4
SHELL BEACH      0500   80 82  240/  3/  4 1013.1

OFFSHORE STATIONS

STATION/POSITION TIME  TEMP    WIND        PRES    WAVE
                       AIR SEA DIR/SP/G            HT/PER
                 (UTC) (F)     (DEG/KT/KT) (MB)    (FT/S)
64 S DAUPHIN ISL 0419   82 85  300/  6/  8 1013.7    1/ 8

$$




USA.gov is the U.S. government's official web portal to all federal, state and local government web resources and services.